| |
Missouri Department of Transportation

Social Media Facebook Twitter Flickr Blog YouTube RSS

Current AWOS Information

 
AWOS Home - General Info for all Airports
Current AWOS for all Airports - Current METAR for all Airports
Glossary - Disclaimer - Other Links


HANNIBAL--HANNIBAL REGIONAL--KHAE
 
Recent AWOS History
 
01/28/15     06:03 AM CST      12:03 GMT
Air Temperature 31°F (-1°C ) 1st Cloud Layer Clear
Dew Point 26°F (-3°C) 2nd Cloud Layer  
Barometric Pressure 30.16 in Hg. 3rd Cloud Layer  
Wind Speed 8 mph (7 knots) Density Altitude  
Peak Wind Gusts   Variable Wind Directions  
Wind Direction Quadrant(130°) Variable Visibility  
Visibility 10 statute miles  

Thunderstorm and Precipitation Identification: 
Thunderstorm Remarks: 

Current METAR Record: METAR KHAE 281203Z AUTO 13007KT 10SM CLR M01/M03 A3016 RMK AO2

 

 

 

About Us
How Do I...
Contact Us
Missouri Department of Transportation
Central Office
105 W. Capitol Avenue
Jefferson City, MO 65102
1-888-ASK-MODOT (275-6636)
1-866-831-6277 (Motor Carrier Services)
Drivers License Offices
horz_bar
| | |
Missouri State Government
© 2013 Missouri Department of Transportation. All Rights Reserved.   Privacy Policy.
 
 
 
 
RSS FeedYoutubeBlogFlickrTwitter Facebook